When you browse on this site, cookies collect data to enhance your experience and personalize the content and advertising you see.
Visit our Privacy Policy to learn more. By continuing to use the site, you agree to this use of cookies and data.
  • In Czech Republic
  • List of Countries
  • For 7 days
  • Water Temperature
  • Satellite Maps
  • Weather Map
  • Weather Widgets
  • user-avatar
    Login

    Hourly Weather Khulna

    Today, 22 March, Friday

    Time Temperature Precipitation Wind Pressure Humidity
    00:00 +28°C° 0 mm 3 mps 757 mmHg 69%
    01:00 +27°C° 0 mm 3 mps 757 mmHg 73%
    02:00 +27°C° 0 mm 3 mps 756 mmHg 76%
    03:00 +27°C° 0 mm 3 mps 756 mmHg 80%
    04:00 +26°C° 0 mm 3 mps 756 mmHg 85%
    05:00 +26°C° 0 mm 3 mps 756 mmHg 90%
    06:00 +26°C° 0 mm 2 mps 756 mmHg 94%
    07:00 +28°C° 0 mm 3 mps 757 mmHg 83%
    08:00 +30°C° 0 mm 4 mps 758 mmHg 72%
    09:00 +34°C° 0 mm 5 mps 758 mmHg 61%
    10:00 +35°C° 0 mm 5 mps 758 mmHg 51%
    11:00 +37°C° 0 mm 5 mps 758 mmHg 41%
    12:00 +40°C° 0 mm 5 mps 757 mmHg 32%
    13:00 +40°C° 0 mm 5 mps 757 mmHg 30%
    14:00 +40°C° 0 mm 5 mps 756 mmHg 27%
    15:00 +41°C° 0 mm 5 mps 755 mmHg 25%
    16:00 +38°C° 0 mm 4 mps 755 mmHg 28%
    17:00 +37°C° 0 mm 3 mps 755 mmHg 32%
    18:00 +35°C° 0 mm 2 mps 754 mmHg 35%
    19:00 +34°C° 0 mm 2 mps 755 mmHg 42%
    20:00 +32°C° 0 mm 2 mps 755 mmHg 49%
    21:00 +30°C° 0 mm 3 mps 756 mmHg 55%
    22:00 +30°C° 0 mm 2 mps 756 mmHg 60%
    23:00 +29°C° 0 mm 2 mps 756 mmHg 65%

    Tomorrow, 23 March, Saturday

    Time Temperature Precipitation Wind Pressure Humidity
    00:00 +28°C° 0 mm 2 mps 756 mmHg 70%
    01:00 +28°C° 0 mm 2 mps 756 mmHg 72%
    02:00 +28°C° 0 mm 2 mps 755 mmHg 74%
    03:00 +27°C° 0 mm 2 mps 755 mmHg 76%
    04:00 +27°C° 0 mm 2 mps 755 mmHg 78%
    05:00 +26°C° 0 mm 1 mps 755 mmHg 80%
    06:00 +26°C° 0 mm 1 mps 755 mmHg 82%
    07:00 +29°C° 0 mm 2 mps 756 mmHg 67%
    08:00 +31°C° 0 mm 2 mps 757 mmHg 53%
    09:00 +34°C° 0 mm 2 mps 758 mmHg 39%
    10:00 +36°C° 0 mm 2 mps 757 mmHg 31%
    11:00 +38°C° 0 mm 3 mps 757 mmHg 24%
    12:00 +40°C° 0 mm 3 mps 757 mmHg 16%
    13:00 +40°C° 0 mm 3 mps 756 mmHg 15%
    14:00 +42°C° 0 mm 4 mps 755 mmHg 13%
    15:00 +42°C° 0 mm 4 mps 754 mmHg 12%
    16:00 +40°C° 0 mm 4 mps 754 mmHg 14%
    17:00 +38°C° 0 mm 4 mps 754 mmHg 17%
    18:00 +36°C° 0 mm 3 mps 754 mmHg 19%
    19:00 +35°C° 0 mm 2 mps 754 mmHg 20%
    20:00 +34°C° 0 mm 2 mps 755 mmHg 21%
    21:00 +31°C° 0 mm 1 mps 755 mmHg 23%
    22:00 +30°C° 0 mm 1 mps 755 mmHg 25%
    23:00 +30°C° 0 mm 1 mps 755 mmHg 28%

    Day after tomorrow, 24 March, Sunday

    Time Temperature Precipitation Wind Pressure Humidity
    00:00 +29°C° 0 mm 1 mps 755 mmHg 31%
    01:00 +28°C° 0 mm 1 mps 755 mmHg 31%
    02:00 +28°C° 0 mm 1 mps 755 mmHg 31%
    03:00 +27°C° 0 mm 2 mps 754 mmHg 31%
    04:00 +27°C° 0 mm 2 mps 755 mmHg 30%
    05:00 +26°C° 0 mm 2 mps 755 mmHg 29%
    06:00 +26°C° 0 mm 2 mps 755 mmHg 28%
    07:00 +28°C° 0 mm 2 mps 756 mmHg 23%
    08:00 +31°C° 0 mm 2 mps 757 mmHg 19%
    09:00 +35°C° 0 mm 3 mps 758 mmHg 14%
    10:00 +36°C° 0 mm 3 mps 757 mmHg 12%
    11:00 +38°C° 0 mm 3 mps 757 mmHg 10%
    12:00 +40°C° 0 mm 3 mps 757 mmHg 8%
    13:00 +41°C° 0 mm 4 mps 756 mmHg 8%
    14:00 +41°C° 0 mm 4 mps 755 mmHg 8%
    15:00 +41°C° 0 mm 4 mps 754 mmHg 8%
    16:00 +40°C° 0 mm 4 mps 754 mmHg 10%
    17:00 +37°C° 0 mm 3 mps 754 mmHg 13%
    18:00 +35°C° 0 mm 2 mps 754 mmHg 15%
    19:00 +34°C° 0 mm 2 mps 754 mmHg 15%
    20:00 +32°C° 0 mm 2 mps 755 mmHg 16%
    21:00 +31°C° 0 mm 2 mps 756 mmHg 16%
    22:00 +30°C° 0 mm 2 mps 756 mmHg 16%
    23:00 +30°C° 0 mm 2 mps 756 mmHg 16%

    25 March, Monday

    Time Temperature Precipitation Wind Pressure Humidity
    00:00 +29°C° 0 mm 2 mps 756 mmHg 16%
    01:00 +29°C° 0 mm 2 mps 755 mmHg 18%
    02:00 +28°C° 0 mm 2 mps 755 mmHg 20%
    03:00 +27°C° 0 mm 2 mps 755 mmHg 22%
    04:00 +27°C° 0 mm 2 mps 755 mmHg 27%
    05:00 +26°C° 0 mm 2 mps 755 mmHg 31%
    06:00 +26°C° 0 mm 2 mps 756 mmHg 36%
    07:00 +28°C° 0 mm 2 mps 756 mmHg 33%
    08:00 +31°C° 0 mm 3 mps 757 mmHg 31%
    09:00 +35°C° 0 mm 3 mps 758 mmHg 28%
    10:00 +37°C° 0 mm 3 mps 757 mmHg 23%
    11:00 +39°C° 0 mm 3 mps 757 mmHg 19%
    12:00 +41°C° 0 mm 2 mps 757 mmHg 14%
    13:00 +42°C° 0 mm 3 mps 756 mmHg 13%
    14:00 +42°C° 0 mm 3 mps 755 mmHg 12%
    15:00 +43°C° 0 mm 4 mps 755 mmHg 12%
    16:00 +41°C° 0 mm 4 mps 754 mmHg 13%
    17:00 +39°C° 0 mm 3 mps 754 mmHg 15%
    18:00 +37°C° 0 mm 3 mps 754 mmHg 17%
    19:00 +36°C° 0 mm 3 mps 755 mmHg 18%
    20:00 +34°C° 0 mm 2 mps 755 mmHg 20%
    21:00 +32°C° 0 mm 2 mps 756 mmHg 21%
    22:00 +31°C° 0 mm 2 mps 756 mmHg 25%
    23:00 +30°C° 0 mm 2 mps 756 mmHg 30%

    26 March, Tuesday

    Time Temperature Precipitation Wind Pressure Humidity
    00:00 +29°C° 0 mm 3 mps 756 mmHg 34%
    01:00 +29°C° 0 mm 2 mps 755 mmHg 37%
    02:00 +28°C° 0 mm 2 mps 755 mmHg 41%
    03:00 +27°C° 0 mm 2 mps 755 mmHg 44%
    04:00 +27°C° 0 mm 2 mps 755 mmHg 48%
    05:00 +27°C° 0 mm 1 mps 755 mmHg 52%
    06:00 +26°C° 0 mm 1 mps 756 mmHg 57%
    07:00 +29°C° 0 mm 2 mps 756 mmHg 50%
    08:00 +32°C° 0 mm 2 mps 757 mmHg 43%
    09:00 +36°C° 0 mm 3 mps 758 mmHg 36%
    10:00 +38°C° 0 mm 3 mps 757 mmHg 29%
    11:00 +40°C° 0 mm 3 mps 757 mmHg 23%
    12:00 +43°C° 0 mm 3 mps 757 mmHg 16%
    13:00 +43°C° 0 mm 3 mps 756 mmHg 15%
    14:00 +44°C° 0 mm 3 mps 755 mmHg 15%
    15:00 +44°C° 0 mm 4 mps 755 mmHg 14%
    16:00 +43°C° 0 mm 3 mps 755 mmHg 17%
    17:00 +40°C° 0 mm 3 mps 755 mmHg 20%
    18:00 +38°C° 0 mm 2 mps 755 mmHg 23%
    19:00 +36°C° 0.2 mm 5 mps 755 mmHg 31%
    20:00 +34°C° 0.2 mm 7 mps 756 mmHg 39%
    21:00 +32°C° 0.2 mm 9 mps 757 mmHg 47%
    22:00 +30°C° 0.3 mm 7 mps 757 mmHg 45%
    23:00 +30°C° 0.3 mm 6 mps 757 mmHg 43%

    27 March, Wednesday

    Time Temperature Precipitation Wind Pressure Humidity
    00:00 +30°C° 0.3 mm 5 mps 757 mmHg 41%
    01:00 +29°C° 0.1 mm 4 mps 756 mmHg 43%
    02:00 +28°C° 0.1 mm 4 mps 756 mmHg 45%
    03:00 +28°C° 0.1 mm 3 mps 756 mmHg 47%
    04:00 +27°C° 0.2 mm 3 mps 756 mmHg 50%
    05:00 +26°C° 0.2 mm 3 mps 757 mmHg 53%
    06:00 +26°C° 0.2 mm 3 mps 757 mmHg 55%
    07:00 +28°C° 0.3 mm 3 mps 758 mmHg 50%
    08:00 +30°C° 0.3 mm 3 mps 758 mmHg 45%
    09:00 +33°C° 0.3 mm 3 mps 759 mmHg 40%
    10:00 +35°C° 0 mm 4 mps 758 mmHg 36%
    11:00 +37°C° 0 mm 4 mps 758 mmHg 32%
    12:00 +40°C° 0 mm 5 mps 758 mmHg 27%
    13:00 +40°C° 0.2 mm 5 mps 757 mmHg 26%
    14:00 +40°C° 0.2 mm 5 mps 756 mmHg 24%
    15:00 +40°C° 0.2 mm 4 mps 755 mmHg 22%
    16:00 +37°C° 1 mm 4 mps 755 mmHg 30%
    17:00 +34°C° 1 mm 4 mps 755 mmHg 37%
    18:00 +32°C° 1 mm 4 mps 755 mmHg 44%
    19:00 +30°C° 0.1 mm 4 mps 755 mmHg 51%
    20:00 +29°C° 0.1 mm 4 mps 756 mmHg 58%
    21:00 +29°C° 0.1 mm 4 mps 756 mmHg 64%
    22:00 +28°C° 0.3 mm 4 mps 756 mmHg 69%
    23:00 +28°C° 0.3 mm 4 mps 756 mmHg 73%
    Show more